DHL1234 ENGM-EDDF

Flight info

Callsign DHL1234
Flight time 1h 43m
Altitude 41000
Route VIPPA DCT RAXLU DCT RIMET/N0494F310 T157 KOKEB/N0449F230 T157 KERAX KERAX5A
Aircraft A359/H-SDE2E3GHIJ3J4J5LM1ORWXY/LB1D1

Departure

Time 2026-05-05 15:21
Airport Oslo-Gardermoen International Airport (ENGM)

Arrival

Time 2026-05-05 17:05
Airport Frankfurt Main Airport (EDDF)
Time Latitude Longitude Altitude Speed Heading
2026-05-05 15:15 60.19495 11.08842 680 ft 0 kts 279°
2026-05-05 15:17 60.19496 11.08830 681 ft 3 kts 279°
2026-05-05 15:17 60.19505 11.08745 680 ft 9 kts 284°
2026-05-05 15:17 60.19523 11.08589 681 ft 13 kts 264°
2026-05-05 15:17 60.19442 11.08483 681 ft 18 kts 197°
2026-05-05 15:18 60.19302 11.08398 683 ft 24 kts 197°
2026-05-05 15:18 60.19124 11.08301 680 ft 29 kts 197°
2026-05-05 15:18 60.18907 11.08170 678 ft 36 kts 197°
2026-05-05 15:18 60.18706 11.08050 674 ft 30 kts 196°
2026-05-05 15:19 60.18551 11.07935 672 ft 11 kts 233°
2026-05-05 15:19 60.18552 11.07788 671 ft 12 kts 286°
2026-05-05 15:19 60.18579 11.07599 671 ft 16 kts 285°
2026-05-05 15:19 60.18609 11.07453 670 ft 3 kts 336°
2026-05-05 15:20 60.18637 11.07451 670 ft 4 kts 16°
2026-05-05 15:20 60.18639 11.07452 670 ft 0 kts 16°
2026-05-05 15:20 60.18809 11.07552 673 ft 67 kts 17°
2026-05-05 15:21 60.19528 11.07966 677 ft 146 kts 16°
2026-05-05 15:21 60.20688 11.08705 908 ft 195 kts 14°
2026-05-05 15:21 60.22122 11.09574 1334 ft 238 kts 13°
2026-05-05 15:21 60.23899 11.10465 1787 ft 287 kts 10°
2026-05-05 15:22 60.25956 11.11402 2304 ft 320 kts
2026-05-05 15:22 60.28194 11.11514 2810 ft 327 kts 346°
2026-05-05 15:22 60.30208 11.09459 3377 ft 329 kts 316°
2026-05-05 15:22 60.31407 11.05579 4014 ft 332 kts 287°
2026-05-05 15:23 60.31452 11.00940 4721 ft 337 kts 258°
2026-05-05 15:23 60.30493 10.96605 5519 ft 338 kts 246°
2026-05-05 15:23 60.29625 10.92260 6538 ft 329 kts 251°
2026-05-05 15:23 60.28829 10.88018 7690 ft 319 kts 251°
2026-05-05 15:24 60.28046 10.83893 8861 ft 310 kts 251°
2026-05-05 15:24 60.27283 10.79900 10074 ft 302 kts 250°
2026-05-05 15:24 60.26502 10.75936 10767 ft 311 kts 250°
2026-05-05 15:24 60.25455 10.72009 11235 ft 326 kts 239°
2026-05-05 15:25 60.23958 10.68438 11750 ft 341 kts 227°
2026-05-05 15:25 60.22133 10.65336 12491 ft 345 kts 223°
2026-05-05 15:25 60.20269 10.62263 13261 ft 348 kts 223°
2026-05-05 15:25 60.18387 10.59167 13959 ft 350 kts 223°
2026-05-05 15:26 60.16498 10.56064 14728 ft 350 kts 224°
2026-05-05 15:26 60.14606 10.53100 15471 ft 352 kts 220°
2026-05-05 15:26 60.12406 10.50708 16239 ft 360 kts 207°
2026-05-05 15:26 60.09943 10.49465 16951 ft 370 kts 196°
2026-05-05 15:27 60.07367 10.48837 17629 ft 375 kts 193°
2026-05-05 15:27 60.04754 10.48341 18248 ft 379 kts 193°
2026-05-05 15:27 60.02154 10.47874 18778 ft 381 kts 194°
2026-05-05 15:27 59.99507 10.47400 19296 ft 383 kts 194°
2026-05-05 15:28 59.96848 10.46927 19827 ft 384 kts 195°
2026-05-05 15:28 59.94174 10.46434 20230 ft 388 kts 196°
2026-05-05 15:28 59.91472 10.45931 20706 ft 390 kts 196°
2026-05-05 15:28 59.88774 10.45448 21224 ft 390 kts 197°
2026-05-05 15:29 59.86066 10.44948 21721 ft 392 kts 197°
2026-05-05 15:29 59.83332 10.44439 22144 ft 395 kts 198°
2026-05-05 15:29 59.80586 10.43930 22585 ft 397 kts 198°
2026-05-05 15:29 59.77835 10.43422 23023 ft 398 kts 198°
2026-05-05 15:30 59.75063 10.42911 23420 ft 401 kts 199°
2026-05-05 15:30 59.72308 10.42405 23732 ft 403 kts 198°
2026-05-05 15:30 59.69508 10.41895 24063 ft 405 kts 198°
2026-05-05 15:30 59.66682 10.41386 24360 ft 409 kts 198°
2026-05-05 15:31 59.63836 10.40871 24675 ft 411 kts 198°
2026-05-05 15:31 59.60980 10.40354 24911 ft 415 kts 197°
2026-05-05 15:31 59.58096 10.39829 25287 ft 415 kts 197°
2026-05-05 15:31 59.55269 10.39017 25682 ft 410 kts 201°
2026-05-05 15:32 59.52454 10.37994 26032 ft 412 kts 202°
2026-05-05 15:32 59.49634 10.36965 26419 ft 414 kts 201°
2026-05-05 15:32 59.46781 10.35952 26814 ft 417 kts 201°
2026-05-05 15:32 59.43914 10.34958 27230 ft 419 kts 201°
2026-05-05 15:33 59.41019 10.33969 27655 ft 422 kts 200°
2026-05-05 15:33 59.38146 10.32997 28100 ft 425 kts 200°
2026-05-05 15:33 59.35221 10.32014 28560 ft 428 kts 200°
2026-05-05 15:33 59.32271 10.31024 29002 ft 431 kts 200°
2026-05-05 15:34 59.29301 10.30031 29423 ft 434 kts 200°
2026-05-05 15:34 59.26316 10.29036 29864 ft 437 kts 199°
2026-05-05 15:34 59.23306 10.28037 30295 ft 439 kts 199°
2026-05-05 15:34 59.20302 10.27040 30653 ft 442 kts 199°
2026-05-05 15:35 59.17241 10.26078 31005 ft 448 kts 197°
2026-05-05 15:35 59.14108 10.25484 31370 ft 455 kts 193°
2026-05-05 15:35 59.10934 10.25046 31690 ft 458 kts 193°
2026-05-05 15:35 59.07739 10.24633 32031 ft 461 kts 193°
2026-05-05 15:36 59.04554 10.24219 32346 ft 464 kts 192°
2026-05-05 15:36 59.01312 10.23792 32650 ft 466 kts 192°
2026-05-05 15:36 58.98086 10.23363 32942 ft 469 kts 192°
2026-05-05 15:36 58.94800 10.22924 33249 ft 471 kts 192°
2026-05-05 15:37 58.91518 10.22570 33674 ft 473 kts 190°
2026-05-05 15:37 58.88212 10.22505 34084 ft 475 kts 188°
2026-05-05 15:37 58.84903 10.22602 34428 ft 476 kts 187°
2026-05-05 15:37 58.81620 10.22758 34747 ft 477 kts 186°
2026-05-05 15:38 58.78297 10.22910 35064 ft 477 kts 186°
2026-05-05 15:38 58.74972 10.23032 35376 ft 477 kts 186°
2026-05-05 15:38 58.71640 10.23119 35691 ft 477 kts 187°
2026-05-05 15:38 58.68346 10.23179 36001 ft 477 kts 186°
2026-05-05 15:39 58.65014 10.23224 36309 ft 478 kts 186°
2026-05-05 15:39 58.61677 10.23260 36633 ft 478 kts 186°
2026-05-05 15:39 58.58339 10.23294 36934 ft 479 kts 186°
2026-05-05 15:39 58.55035 10.23328 37237 ft 479 kts 186°
2026-05-05 15:40 58.51691 10.23364 37546 ft 480 kts 186°
2026-05-05 15:40 58.48353 10.23401 37855 ft 480 kts 186°
2026-05-05 15:40 58.44992 10.23440 38163 ft 480 kts 185°
2026-05-05 15:40 58.41676 10.23478 38448 ft 481 kts 185°
2026-05-05 15:41 58.38319 10.23517 38719 ft 481 kts 185°
2026-05-05 15:41 58.34959 10.23556 38932 ft 481 kts 185°
2026-05-05 15:41 58.31641 10.23594 39138 ft 482 kts 185°
2026-05-05 15:41 58.28275 10.23633 39355 ft 482 kts 185°
2026-05-05 15:42 58.24907 10.23672 39563 ft 483 kts 185°
2026-05-05 15:42 58.21567 10.23710 39758 ft 483 kts 185°
2026-05-05 15:42 58.18205 10.23749 39962 ft 483 kts 185°
2026-05-05 15:42 58.14830 10.23787 40153 ft 484 kts 185°
2026-05-05 15:43 58.12718 10.23811 40276 ft 484 kts 185°
2026-05-05 15:43 58.09341 10.23850 40471 ft 484 kts 184°
2026-05-05 15:43 58.06008 10.23888 40659 ft 484 kts 184°
2026-05-05 15:43 58.02634 10.23926 40844 ft 484 kts 184°
2026-05-05 15:44 57.99256 10.23965 40943 ft 485 kts 184°
2026-05-05 15:44 57.92505 10.24041 40956 ft 485 kts 184°
2026-05-05 15:45 57.85774 10.24117 40956 ft 485 kts 184°
2026-05-05 15:45 57.79007 10.24194 40956 ft 485 kts 184°
2026-05-05 15:46 57.72283 10.24269 40958 ft 485 kts 184°
2026-05-05 15:46 57.65565 10.24344 40958 ft 484 kts 184°
2026-05-05 15:47 57.59954 10.24406 40960 ft 484 kts 184°
2026-05-05 15:47 57.52099 10.24493 40961 ft 483 kts 184°
2026-05-05 15:48 57.46500 10.24555 40958 ft 483 kts 184°
2026-05-05 15:48 57.39796 10.24629 40958 ft 483 kts 184°
2026-05-05 15:49 57.33061 10.24703 40954 ft 482 kts 184°
2026-05-05 15:49 57.26349 10.24776 40962 ft 482 kts 184°
2026-05-05 15:50 57.19639 10.24848 40955 ft 481 kts 184°
2026-05-05 15:50 57.12971 10.24919 40959 ft 481 kts 184°
2026-05-05 15:51 57.06261 10.24991 40961 ft 481 kts 184°
2026-05-05 15:51 56.99606 10.25062 40959 ft 481 kts 184°
2026-05-05 15:52 56.92903 10.25134 40959 ft 480 kts 184°
2026-05-05 15:52 56.86239 10.25204 40956 ft 480 kts 184°
2026-05-05 15:53 56.79537 10.25275 40952 ft 480 kts 184°
2026-05-05 15:53 56.72890 10.25346 40951 ft 480 kts 184°
2026-05-05 15:54 56.66198 10.25416 40947 ft 480 kts 184°
2026-05-05 15:54 56.59543 10.25486 40949 ft 480 kts 184°
2026-05-05 15:55 56.52852 10.25556 40949 ft 480 kts 184°
2026-05-05 15:55 56.46152 10.25626 40952 ft 480 kts 184°
2026-05-05 15:56 56.39508 10.25694 40954 ft 480 kts 184°
2026-05-05 15:56 56.32807 10.25763 40955 ft 480 kts 184°
2026-05-05 15:57 56.26109 10.25832 40958 ft 481 kts 184°
2026-05-05 15:57 56.19456 10.25900 40952 ft 481 kts 184°
2026-05-05 15:58 56.12754 10.25969 40947 ft 481 kts 184°
2026-05-05 15:58 56.06082 10.26037 40943 ft 481 kts 184°
2026-05-05 15:59 55.99366 10.26106 40938 ft 481 kts 184°
2026-05-05 15:59 55.92700 10.26173 40942 ft 481 kts 184°
2026-05-05 16:00 55.86014 10.26241 40940 ft 481 kts 184°
2026-05-05 16:00 55.79308 10.26309 40937 ft 480 kts 184°
2026-05-05 16:01 55.72621 10.26376 40944 ft 480 kts 184°
2026-05-05 16:01 55.65980 10.26442 40934 ft 479 kts 184°
2026-05-05 16:02 55.59305 10.26509 40940 ft 479 kts 184°
2026-05-05 16:02 55.52624 10.26576 40936 ft 478 kts 183°
2026-05-05 16:03 55.45972 10.26641 40938 ft 478 kts 183°
2026-05-05 16:03 55.39344 10.26707 40937 ft 478 kts 183°
2026-05-05 16:04 55.32688 10.26772 40937 ft 478 kts 183°
2026-05-05 16:04 55.26059 10.26835 40935 ft 478 kts 183°
2026-05-05 16:05 55.19426 10.26900 40931 ft 478 kts 183°
2026-05-05 16:05 55.12767 10.26965 40933 ft 478 kts 183°
2026-05-05 16:06 55.06125 10.27030 40932 ft 478 kts 183°
2026-05-05 16:06 54.99454 10.27095 40931 ft 478 kts 183°
2026-05-05 16:07 54.92791 10.27159 40926 ft 478 kts 183°
2026-05-05 16:07 54.86171 10.27223 40925 ft 478 kts 183°
2026-05-05 16:08 54.79516 10.27286 40926 ft 478 kts 183°
2026-05-05 16:08 54.72842 10.27350 40926 ft 478 kts 183°
2026-05-05 16:09 54.66213 10.27355 40929 ft 478 kts 183°
2026-05-05 16:09 54.59551 10.27262 40927 ft 477 kts 184°
2026-05-05 16:10 54.52927 10.27144 40933 ft 477 kts 184°
2026-05-05 16:10 54.46315 10.27025 40935 ft 477 kts 184°
2026-05-05 16:11 54.39677 10.26909 40937 ft 477 kts 184°
2026-05-05 16:12 54.26390 10.26683 40932 ft 476 kts 184°
2026-05-05 16:13 54.09855 10.26403 40917 ft 475 kts 184°
2026-05-05 16:13 54.03235 10.26292 40907 ft 475 kts 184°
2026-05-05 16:14 53.90009 10.26071 40902 ft 475 kts 184°
2026-05-05 16:15 53.76845 10.25853 40905 ft 474 kts 184°
2026-05-05 16:16 53.63649 10.25634 40907 ft 474 kts 184°
2026-05-05 16:17 53.53730 10.25471 40905 ft 474 kts 184°
2026-05-05 16:18 53.43869 10.25310 40903 ft 475 kts 184°
2026-05-05 16:19 53.33925 10.25148 40902 ft 476 kts 183°
2026-05-05 16:19 53.23980 10.24987 40897 ft 476 kts 183°
2026-05-05 16:20 53.10740 10.24774 40889 ft 475 kts 183°
2026-05-05 16:22 52.94228 10.24509 40885 ft 475 kts 184°
2026-05-05 16:23 52.81009 10.24299 40883 ft 474 kts 183°
2026-05-05 16:23 52.71162 10.24144 40880 ft 474 kts 184°
2026-05-05 16:24 52.64550 10.24040 40887 ft 473 kts 184°
2026-05-05 16:25 52.54682 10.23885 40883 ft 472 kts 184°
2026-05-05 16:25 52.44866 10.23731 40870 ft 471 kts 184°
2026-05-05 16:26 52.31745 10.23527 40862 ft 471 kts 183°
2026-05-05 16:27 52.25193 10.23425 40858 ft 470 kts 183°
2026-05-05 16:27 52.18640 10.23324 40858 ft 470 kts 183°
2026-05-05 16:28 52.12100 10.23223 40853 ft 470 kts 183°
2026-05-05 16:28 52.05554 10.23123 40848 ft 470 kts 183°
2026-05-05 16:29 51.99024 10.23023 40845 ft 469 kts 183°
2026-05-05 16:29 51.92528 10.22924 40842 ft 469 kts 183°
2026-05-05 16:30 51.85992 10.22825 40838 ft 469 kts 183°
2026-05-05 16:30 51.79452 10.22726 40832 ft 469 kts 183°
2026-05-05 16:31 51.72917 10.22627 40827 ft 469 kts 183°
2026-05-05 16:31 51.66390 10.22528 40828 ft 469 kts 183°
2026-05-05 16:32 51.59914 10.22432 40823 ft 469 kts 183°
2026-05-05 16:32 51.53389 10.22335 40816 ft 469 kts 183°
2026-05-05 16:33 51.46865 10.22236 40819 ft 468 kts 183°
2026-05-05 16:33 51.41434 10.22155 40815 ft 468 kts 183°
2026-05-05 16:34 51.34917 10.22057 40817 ft 468 kts 183°
2026-05-05 16:34 51.28401 10.21948 40817 ft 468 kts 183°
2026-05-05 16:35 51.21901 10.21809 40814 ft 467 kts 183°
2026-05-05 16:35 51.15391 10.21668 40804 ft 467 kts 183°
2026-05-05 16:36 51.08886 10.21533 40807 ft 467 kts 183°
2026-05-05 16:36 51.02413 10.21420 40799 ft 467 kts 183°
2026-05-05 16:37 50.95900 10.21311 40805 ft 467 kts 183°
2026-05-05 16:37 50.89612 10.21200 40800 ft 467 kts 183°
2026-05-05 16:38 50.86373 10.20938 40682 ft 463 kts 188°
2026-05-05 16:38 50.83216 10.20053 40440 ft 460 kts 196°
2026-05-05 16:38 50.80225 10.18482 40198 ft 458 kts 204°
2026-05-05 16:38 50.77403 10.16197 39906 ft 454 kts 213°
2026-05-05 16:39 50.74832 10.13237 39372 ft 450 kts 221°
2026-05-05 16:39 50.72658 10.09778 38755 ft 450 kts 230°
2026-05-05 16:39 50.70825 10.05760 38023 ft 451 kts 238°
2026-05-05 16:39 50.69415 10.01348 37310 ft 450 kts 246°
2026-05-05 16:40 50.68446 9.96657 36644 ft 450 kts 254°
2026-05-05 16:40 50.67933 9.91778 35951 ft 451 kts 262°
2026-05-05 16:40 50.67519 9.86883 35239 ft 449 kts 258°
2026-05-05 16:40 50.66815 9.82082 34428 ft 449 kts 251°
2026-05-05 16:41 50.65726 9.77472 33568 ft 450 kts 245°
2026-05-05 16:41 50.64340 9.73119 32662 ft 450 kts 237°
2026-05-05 16:41 50.62413 9.69244 31773 ft 450 kts 226°
2026-05-05 16:41 50.59986 9.66132 30866 ft 452 kts 213°
2026-05-05 16:42 50.57214 9.63939 29931 ft 457 kts 204°
2026-05-05 16:42 50.54415 9.62208 28922 ft 459 kts 203°
2026-05-05 16:42 50.51568 9.60046 28243 ft 451 kts 212°
2026-05-05 16:42 50.49143 9.57133 27582 ft 444 kts 224°
2026-05-05 16:43 50.47176 9.53417 26893 ft 440 kts 236°
2026-05-05 16:43 50.45793 9.49156 26207 ft 438 kts 248°
2026-05-05 16:43 50.45660 9.48597 26121 ft 438 kts 249°
2026-05-05 16:44 50.45298 9.46920 25874 ft 437 kts 251°
2026-05-05 16:44 50.44428 9.42362 25186 ft 434 kts 252°
2026-05-05 16:44 50.43601 9.37840 24518 ft 431 kts 252°
2026-05-05 16:44 50.42770 9.33342 23839 ft 428 kts 252°
2026-05-05 16:45 50.41944 9.28934 23135 ft 425 kts 252°
2026-05-05 16:45 50.41107 9.24509 22420 ft 421 kts 252°
2026-05-05 16:45 50.40196 9.20174 21744 ft 415 kts 249°
2026-05-05 16:45 50.39199 9.15970 21081 ft 410 kts 248°
2026-05-05 16:46 50.38202 9.11799 20416 ft 406 kts 248°
2026-05-05 16:46 50.37221 9.07672 19747 ft 402 kts 248°
2026-05-05 16:46 50.36253 9.03567 19071 ft 400 kts 248°
2026-05-05 16:46 50.35294 8.99485 18397 ft 397 kts 249°
2026-05-05 16:47 50.34327 8.95447 17647 ft 394 kts 246°
2026-05-05 16:47 50.33015 8.91717 16941 ft 389 kts 233°
2026-05-05 16:47 50.31114 8.88739 16273 ft 383 kts 216°
2026-05-05 16:47 50.28820 8.86817 15608 ft 380 kts 200°
2026-05-05 16:48 50.26246 8.85986 14933 ft 378 kts 184°
2026-05-05 16:48 50.23640 8.86322 14224 ft 377 kts 169°
2026-05-05 16:48 50.21210 8.87923 13738 ft 387 kts 148°
2026-05-05 16:48 50.19256 8.90839 13480 ft 394 kts 128°
2026-05-05 16:49 50.18030 8.94686 13223 ft 397 kts 108°
2026-05-05 16:49 50.17705 8.98956 12951 ft 400 kts 89°
2026-05-05 16:49 50.18102 9.03262 12910 ft 402 kts 81°
2026-05-05 16:49 50.18890 9.07453 12848 ft 403 kts 70°
2026-05-05 16:50 50.20261 9.11257 12595 ft 404 kts 56°
2026-05-05 16:50 50.21942 9.14772 12330 ft 403 kts 53°
2026-05-05 16:50 50.23671 9.18198 12004 ft 400 kts 53°
2026-05-05 16:50 50.25393 9.21575 11424 ft 393 kts 53°
2026-05-05 16:51 50.27084 9.24889 11010 ft 383 kts 53°
2026-05-05 16:51 50.28694 9.28053 10850 ft 366 kts 53°
2026-05-05 16:51 50.30238 9.31096 10738 ft 350 kts 53°
2026-05-05 16:51 50.31698 9.34036 10651 ft 333 kts 57°
2026-05-05 16:52 50.32788 9.37103 10633 ft 313 kts 70°
2026-05-05 16:52 50.33287 9.40306 10616 ft 294 kts 88°
2026-05-05 16:52 50.33131 9.43365 10592 ft 274 kts 107°
2026-05-05 16:52 50.32388 9.46044 10584 ft 266 kts 126°
2026-05-05 16:53 50.31154 9.48159 10462 ft 260 kts 149°
2026-05-05 16:53 50.29490 9.48967 10343 ft 255 kts 181°
2026-05-05 16:53 50.27819 9.48172 10215 ft 255 kts 213°
2026-05-05 16:53 50.26492 9.46324 10023 ft 256 kts 222°
2026-05-05 16:54 50.25198 9.44406 9695 ft 257 kts 220°
2026-05-05 16:54 50.23865 9.42364 9467 ft 272 kts 227°
2026-05-05 16:54 50.22874 9.39857 9365 ft 275 kts 243°
2026-05-05 16:54 50.22202 9.37052 8871 ft 277 kts 248°
2026-05-05 16:55 50.21589 9.34184 8373 ft 278 kts 249°
2026-05-05 16:55 50.20985 9.31394 8059 ft 261 kts 249°
2026-05-05 16:55 50.20417 9.28806 7723 ft 244 kts 248°
2026-05-05 16:55 50.19854 9.26323 7444 ft 242 kts 248°
2026-05-05 16:56 50.19290 9.23863 7153 ft 239 kts 248°
2026-05-05 16:56 50.18731 9.21427 6870 ft 238 kts 248°
2026-05-05 16:56 50.18160 9.19009 6590 ft 237 kts 248°
2026-05-05 16:56 50.17657 9.16591 6296 ft 237 kts 250°
2026-05-05 16:57 50.17155 9.14138 5997 ft 236 kts 250°
2026-05-05 16:57 50.16640 9.11713 5709 ft 235 kts 250°
2026-05-05 16:57 50.16104 9.09312 5544 ft 235 kts 249°
2026-05-05 16:57 50.15547 9.06914 5321 ft 234 kts 248°
2026-05-05 16:58 50.14974 9.04536 5306 ft 234 kts 247°
2026-05-05 16:58 50.14385 9.02163 5304 ft 234 kts 247°
2026-05-05 16:58 50.13813 8.99786 5302 ft 235 kts 248°
2026-05-05 16:58 50.13260 8.97435 5304 ft 230 kts 248°
2026-05-05 16:59 50.12721 8.95149 5211 ft 220 kts 248°
2026-05-05 16:59 50.12196 8.92946 4950 ft 211 kts 247°
2026-05-05 16:59 50.11690 8.90846 4650 ft 203 kts 248°
2026-05-05 16:59 50.11205 8.88813 4340 ft 200 kts 248°
2026-05-05 17:00 50.10716 8.86762 4046 ft 203 kts 249°
2026-05-05 17:00 50.10226 8.84710 3733 ft 198 kts 249°
2026-05-05 17:00 50.09749 8.82710 3473 ft 198 kts 249°
2026-05-05 17:00 50.09275 8.80725 3242 ft 198 kts 249°
2026-05-05 17:01 50.08801 8.78735 2997 ft 196 kts 250°
2026-05-05 17:01 50.08329 8.76760 2721 ft 192 kts 250°
2026-05-05 17:01 50.07867 8.74832 2434 ft 185 kts 251°
2026-05-05 17:01 50.07435 8.73024 2216 ft 171 kts 251°
2026-05-05 17:02 50.07042 8.71368 1976 ft 156 kts 252°
2026-05-05 17:02 50.06684 8.69859 1767 ft 142 kts 252°
2026-05-05 17:02 50.06354 8.68476 1600 ft 132 kts 253°
2026-05-05 17:02 50.06038 8.67149 1431 ft 133 kts 252°
2026-05-05 17:03 50.05716 8.65798 1274 ft 133 kts 252°
2026-05-05 17:03 50.05396 8.64458 1128 ft 132 kts 252°
2026-05-05 17:03 50.05081 8.63138 980 ft 129 kts 251°
2026-05-05 17:03 50.04770 8.61842 860 ft 131 kts 251°
2026-05-05 17:04 50.04449 8.60520 683 ft 128 kts 250°
2026-05-05 17:04 50.04140 8.59223 454 ft 126 kts 250°
2026-05-05 17:04 50.03848 8.57960 372 ft 122 kts 250°
2026-05-05 17:04 50.03617 8.56992 364 ft 56 kts 249°
2026-05-05 17:05 50.03553 8.56735 358 ft 2 kts 250°
2026-05-05 17:05 50.03482 8.56420 362 ft 54 kts 250°
2026-05-05 17:05 50.03435 8.56077 363 ft 11 kts 275°
2026-05-05 17:05 50.03443 8.55969 355 ft 0 kts 278°
2026-05-05 17:06 50.03450 8.55915 359 ft 13 kts 282°
2026-05-05 17:06 50.03465 8.55794 359 ft 0 kts 279°
2026-05-05 17:07 50.03465 8.55793 351 ft 1 kts 279°
2026-05-05 17:07 50.03470 8.55764 357 ft 5 kts 288°
2026-05-05 17:08 50.03499 8.55726 358 ft 6 kts 338°
2026-05-05 17:08 50.03531 8.55731 359 ft 3 kts 21°
2026-05-05 17:08 50.03547 8.55751 356 ft 0 kts 49°
2026-05-05 17:09 50.03552 8.55760 360 ft 3 kts 49°
2026-05-05 17:09 50.03573 8.55819 361 ft 9 kts 65°
2026-05-05 17:09 50.03605 8.55948 363 ft 16 kts 70°
2026-05-05 17:10 50.03651 8.56138 365 ft 21 kts 69°
2026-05-05 17:10 50.03709 8.56386 368 ft 27 kts 70°
2026-05-05 17:10 50.03779 8.56685 364 ft 32 kts 68°
2026-05-05 17:10 50.03864 8.57025 366 ft 35 kts 70°
2026-05-05 17:11 50.03952 8.57388 370 ft 37 kts 70°
2026-05-05 17:11 50.04043 8.57771 375 ft 39 kts 70°
2026-05-05 17:11 50.04110 8.58055 378 ft 26 kts 66°
2026-05-05 17:11 50.04211 8.58187 376 ft 18 kts 24°
2026-05-05 17:12 50.04278 8.58207 377 ft 6 kts 345°
2026-05-05 17:12 50.04284 8.58203 376 ft 0 kts 341°
2026-05-05 17:12 50.04287 8.58202 376 ft 1 kts 341°
2026-05-05 17:13 50.04310 8.58190 375 ft 5 kts 341°
2026-05-05 17:13 50.04357 8.58165 375 ft 9 kts 341°
2026-05-05 17:13 50.04434 8.58122 378 ft 14 kts 338°
2026-05-05 17:13 50.04463 8.58105 374 ft 0 kts 339°
2026-05-05 17:14 50.04464 8.58105 374 ft 0 kts 339°
2026-05-05 17:14 50.04481 8.58095 372 ft 0 kts 339°
2026-05-05 17:14 50.04482 8.58094 372 ft 0 kts 339°
2026-05-05 17:15 50.04499 8.58084 375 ft 6 kts 339°
2026-05-05 17:15 50.04569 8.58042 374 ft 16 kts 339°
2026-05-05 17:15 50.04697 8.57966 368 ft 22 kts 340°
2026-05-05 17:15 50.04787 8.57939 365 ft 9 kts 12°
2026-05-05 17:16 50.04865 8.57967 369 ft 12 kts 12°
2026-05-05 17:16 50.04888 8.57974 370 ft 0 kts 12°